sat.trackr.live / text

‹ back to catalog

STARLINK-11239 [DTC]

NORAD 60924 · 2024-155A

PAYLOAD ACTIVE UNKNOWN

§ Identity

Operator
Country
US
Launch date
2024-08-31
Launch site
AFWTR
Launch vehicle
Mass (kg)
RCS (m²)

Purposes: comms

External: N2YO · Heavens-Above · Gunter

§ Orbital elements

Epoch: 2026-09-21T18:24:06.030144Z

Period
91.73 min
Inclination
53.1579°
Eccentricity
0.0000740
Mean motion
15.69755899 rev/d
Perigee alt
359.1 km
Apogee alt
360.1 km
Semi-major
6,737.7 km
B*
-7.3811e-5
RAAN
95.0242°
Arg perigee
84.4216°
Mean anomaly
275.6887°
Rev number
11,919

§ Raw data

STARLINK-11239 [DTC]1 60924U 24155A   26264.76673646 -.00009537  00000+0 -73811-4 0  99922 60924  53.1579  95.0242 0000740  84.4216 275.6887 15.69755899119199

JSON: /api/v1/satellites/60924 · /tle

For live sub-satellite position, see the globe view (requires WebGL).

§ Visibility from observer

Set your observer location to see the next 7 days of passes ≥ 10°. The values pass through the URL so the page stays shareable.

No JS? Fill the form by hand. The geolocation button needs JavaScript.